Weather in Kovylkino

Russia / Republic of Mordovia     54°02′21″N   43°55′08″E
temp.,
°C
wind,
m/s
gust,
m/s
humid.,
%
clouds,
%
prec.,
mm/h
press.,
hPa
HPBL,
m
24 june, thu
thu2400:00+21ene22810 0.0 102112
03:00+20nnw01840 0.0 102011
06:00+23ne12790 0.0 102183
09:00+27ne22640 0.0 1020474
12:00+30n12520 0.0 10201409
15:00+31wsw02465 0.0 10192075
18:00+30nnw016321 0.0 1017315
21:00+24wsw117054 0.0 101812
25 june, fri
fri2500:00+21wnw34795 0.0 101866
03:00+20nw22900 0.2 101913
06:00+22nw12790 0.0 101891
09:00+27wnw22671 0.0 1018382
12:00+30w115519 0.0 10171076
15:00+31w22511 0.0 10171608
18:00+30wsw23675 0.0 1015123
21:00+24sw22722 0.0 101511
26 june, sat
sat2600:00+22sw117889 0.1 101611
03:00+21wsw1185100 0.1 101511
06:00+23sw1180100 0.0 101561
09:00+27wsw1267100 0.0 1015441
12:00+30wsw2252100 1.3 10151418
15:00+30sw225173 1.3 10141503
18:00+29sw236584 0.0 1013118
21:00+22wnw22823 0.1 101314
27 june, sun
sun2700:00+22sw1181100 0.0 101311
03:00+20wnw1183100 0.1 101311
06:00+22ssw2387100 0.3 1014104
09:00+26wnw226896 0.3 1014413
12:00+28wsw2364100 1.9 1014595
15:00+29sw235791 2.1 10141163
18:00+29wsw237080 0.0 1013286
21:00+24ssw007971 0.1 101311
28 june, mon
mon2800:00+22sw1184100 0.8 101311
03:00+21e0085100 0.8 101311
06:00+24sse1181100 0.0 101361
09:00+28s116748 0.0 1013468
12:00+30s225848 0.8 10131228
15:00+31sse115047 0.8 10121749
18:00+28s347532 0.3 1012155
21:00+24se11745 0.3 101111